EW1577 Weather Reports


Display with metric or nautical units.
time (UTC)temp
F
wind
direction
speed
MPH
gust
MPH
rain 1hr
in
rain 24hr
in
rain mn
in
humidity
%
barometer
mb
20170721043901 78 270 0.0 0.0 0.00 0.00 0.00 98 1015.8
20170721043348 78 113 0.0 0.0 0.00 0.00 0.00 98 1015.8
20170721042834 78 180 0.0 0.0 0.00 0.00 0.00 98 1015.8
20170721042329 78 225 0.0 0.0 0.00 0.00 0.00 98 1015.5
20170721041827 77 113 0.0 0.0 0.00 0.00 0.00 98 1015.5
20170721041327 77 90 0.0 0.0 0.00 0.00 0.00 98 1015.8
20170721040813 77 135 0.0 0.0 0.00 0.00 0.00 98 1015.5
20170721040307 77 113 0.0 0.0 0.00 0.00 0.00 96 1015.8
20170721035802 77 45 0.0 0.0 0.00 0.00 0.00 96 1015.8
20170721035306 77 90 0.0 0.0 0.00 0.00 0.00 95 1015.8
20170721034752 78 45 0.0 0.0 0.00 0.00 0.00 95 1015.8
20170721034247 78 90 0.0 0.0 0.00 0.00 0.00 95 1015.8
20170721033714 78 113 0.0 0.0 0.00 0.00 0.00 93 1015.8
20170721033214 78 113 0.0 0.0 0.00 0.00 0.00 93 1015.8
20170721032710 78 113 0.0 0.0 0.00 0.00 0.00 93 1016.2
20170721032205 78 90 0.0 0.0 0.00 0.00 0.00 93 1015.5
20170721031652 78 158 0.0 0.0 0.00 0.00 0.00 93 1015.5
20170721031134 78 158 0.0 0.0 0.00 0.00 0.00 93 1015.5
20170721030629 78 68 0.0 0.0 0.00 0.00 0.00 93 1016.2
20170721030119 78 68 0.0 0.0 0.00 0.00 0.00 93 1015.5
20170721025620 78 23 0.0 0.0 0.00 0.00 0.00 93 1015.8
20170721025100 78 45 0.0 0.0 0.00 0.00 0.00 93 1015.8
20170721024554 78 158 0.0 0.0 0.00 0.00 0.00 91 1015.8
20170721024049 78 158 0.0 0.0 0.00 0.00 0.00 91 1015.8
20170721023555 78 158 0.0 0.0 0.00 0.00 0.00 91 1015.5
20170721023039 78 158 0.0 0.0 0.00 0.00 0.00 91 1015.8
20170721022526 78 158 0.0 0.0 0.00 0.00 0.00 91 1015.5
20170721022018 78 135 0.0 0.0 0.00 0.00 0.00 90 1015.5
20170721021513 78 158 0.0 0.0 0.00 0.00 0.00 90 1015.8
20170721021016 79 158 0.0 0.0 0.00 0.00 0.00 88 1015.8
20170721020512 79 68 0.0 0.0 0.00 0.00 0.00 88 1015.5
20170721015933 79 158 0.0 0.0 0.00 0.00 0.00 88 1016.2
20170721015432 80 113 0.0 0.0 0.00 0.00 0.00 88 1015.5
20170721014921 80 180 0.0 0.0 0.00 0.00 0.00 86 1015.5
20170721014422 80 158 0.0 1.0 0.00 0.00 0.00 86 1015.8
20170721013912 80 158 0.0 1.0 0.00 0.00 0.00 86 1015.8
20170721013401 80 135 0.0 1.0 0.00 0.00 0.00 86 1015.5
20170721012905 80 113 0.0 2.0 0.00 0.00 0.00 86 1015.8
20170721012402 81 225 0.0 3.0 0.00 0.00 0.00 86 1015.5
20170721011850 81 248 1.0 3.0 0.00 0.00 0.00 85 1015.5
20170721011338 81 203 1.0 2.0 0.00 0.00 0.00 85 1015.8
20170721010827 81 225 0.0 1.0 0.00 0.00 0.00 85 1015.8
20170721010329 81 90 0.0 1.0 0.00 0.00 0.00 83 1015.8
20170721005826 81 135 0.0 2.0 0.00 0.00 0.00 83 1015.5
20170721005316 81 225 1.0 4.0 0.00 0.00 0.00 83 1015.8
20170721004810 82 225 2.0 4.0 0.00 0.00 0.00 81 1015.8
20170721004311 82 225 1.0 3.0 0.00 0.00 0.00 81 1015.8
20170721003808 82 225 1.0 3.0 0.00 0.00 0.00 81 1015.5
20170721003302 82 203 0.0 2.0 0.00 0.00 0.00 81 1015.8
20170721002749 82 203 0.0 2.0 0.00 0.00 0.00 81 1015.8
20170721002232 83 23 1.0 2.0 0.00 0.00 0.00 81 1015.5
20170721001716 83 270 1.0 2.0 0.00 0.00 0.00 81 1015.8
20170721001213 83 225 0.0 3.0 0.00 0.00 0.00 81 1015.5
20170721000704 83 158 1.0 3.0 0.00 0.00 0.00 80 1015.5
20170721000152 83 203 2.0 6.0 0.00 0.00 0.00 80 1015.1
20170720235643 84 248 3.0 6.0 0.00 0.00 0.00 76 1015.5
20170720235145 84 135 3.0 7.0 0.00 0.00 0.00 76 1015.5
20170720234642 85 225 3.0 7.0 0.00 0.00 0.00 75 1015.1
20170720234131 85 203 4.0 8.0 0.00 0.00 0.00 75 1015.5
20170720233631 85 225 4.0 8.0 0.00 0.00 0.00 75 1015.8
20170720233111 86 270 2.0 5.0 0.00 0.00 0.00 75 1015.5
20170720232606 86 225 2.0 5.0 0.00 0.00 0.00 74 1015.5
20170720232108 86 270 3.0 8.0 0.00 0.00 0.00 73 1015.8
20170720231555 86 248 4.0 8.0 0.00 0.00 0.00 74 1015.5
20170720231045 85 225 4.0 6.0 0.00 0.00 0.00 76 1015.8
20170720230537 85 203 3.0 7.0 0.00 0.00 0.00 79 1015.5
20170720230045 85 113 4.0 7.0 0.00 0.00 0.00 78 1015.5
20170720225530 86 203 4.0 8.0 0.00 0.00 0.00 78 1015.5
20170720224950 85 270 4.0 8.0 0.00 0.00 0.00 78 1015.8
20170720224436 86 293 4.0 9.0 0.00 0.00 0.00 79 1015.5
20170720223924 85 203 5.0 9.0 0.00 0.00 0.00 79 1015.5
20170720223434 85 270 5.0 8.0 0.00 0.00 0.00 80 1015.5
20170720222928 85 203 5.0 9.0 0.00 0.00 0.00 79 1015.5
20170720222416 86 248 4.0 9.0 0.00 0.00 0.00 80 1015.5
20170720221900 86 225 5.0 9.0 0.00 0.00 0.00 80 1015.5
20170720221351 85 270 4.0 9.0 0.00 0.00 0.00 81 1015.5
20170720220852 86 293 4.0 8.0 0.00 0.00 0.00 81 1015.5
20170720220351 85 203 4.0 7.0 0.00 0.00 0.00 81 1015.5
20170720215839 85 113 4.0 6.0 0.00 0.00 0.00 81 1015.5
20170720215327 86 203 2.0 7.0 0.00 0.00 0.00 81 1015.5
20170720214829 85 203 3.0 7.0 0.00 0.00 0.00 83 1015.5
20170720214327 85 203 4.0 6.0 0.00 0.00 0.00 81 1015.8
20170720213818 85 225 4.0 8.0 0.00 0.00 0.00 81 1015.8
20170720213310 85 225 4.0 9.0 0.00 0.00 0.00 81 1016.2
20170720212754 85 180 4.0 9.0 0.00 0.00 0.00 80 1016.2
20170720212255 85 270 4.0 6.0 0.00 0.00 0.00 80 1016.2
20170720211757 85 225 4.0 6.0 0.00 0.00 0.00 81 1016.2
20170720211243 84 203 3.0 8.0 0.00 0.00 0.00 81 1016.2
20170720210736 85 68 4.0 9.0 0.00 0.00 0.00 81 1016.2
20170720210233 85 135 5.0 9.0 0.00 0.00 0.00 80 1015.8
20170720205732 85 203 4.0 8.0 0.00 0.00 0.00 81 1015.8
20170720205221 85 248 4.0 8.0 0.00 0.00 0.00 81 1015.8
20170720204709 85 158 4.0 9.0 0.00 0.00 0.00 81 1015.8
20170720204159 86 225 4.0 9.0 0.00 0.00 0.00 80 1015.8
20170720203659 86 248 4.0 7.0 0.00 0.00 0.00 81 1015.8
20170720203158 86 180 3.0 8.0 0.00 0.00 0.00 81 1015.8
20170720202648 86 203 4.0 9.0 0.00 0.00 0.00 80 1015.8
20170720202135 86 248 4.0 9.0 0.00 0.00 0.00 81 1016.2
20170720201630 86 68 2.0 5.0 0.00 0.00 0.00 81 1015.8
20170720201121 85 68 3.0 8.0 0.00 0.00 0.00 81 1015.8
20170720200609 85 248 4.0 8.0 0.00 0.00 0.00 81 1016.5
20170720200109 85 270 4.0 7.0 0.00 0.00 0.00 81 1016.2
20170720195559 86 203 3.0 8.0 0.00 0.00 0.00 78 1015.8
20170720195035 87 203 3.0 8.0 0.00 0.00 0.00 78 1015.5
20170720194547 87 293 3.0 7.0 0.00 0.00 0.00 78 1015.8
20170720194036 88 180 4.0 8.0 0.00 0.00 0.00 75 1015.5
20170720193528 89 135 4.0 8.0 0.00 0.00 0.00 74 1015.8
20170720193015 91 203 3.0 8.0 0.00 0.00 0.00 73 1015.8
20170720192515 89 338 2.0 6.0 0.00 0.00 0.00 75 1015.5
20170720192013 90 293 2.0 7.0 0.00 0.00 0.00 73 1015.8
20170720191501 89 248 4.0 7.0 0.00 0.00 0.00 73 1015.8
20170720190951 90 203 4.0 8.0 0.00 0.00 0.00 73 1015.8
20170720190439 89 225 5.0 8.0 0.00 0.00 0.00 75 1015.8
20170720185939 89 90 2.0 4.0 0.00 0.00 0.00 79 1015.8
20170720185438 89 338 2.0 6.0 0.00 0.00 0.00 76 1016.2
20170720184930 89 180 2.0 6.0 0.00 0.00 0.00 76 1016.5
20170720184417 89 158 3.0 6.0 0.00 0.00 0.00 78 1016.5
20170720183920 89 203 2.0 7.0 0.00 0.00 0.00 79 1016.5
20170720183419 89 180 2.0 7.0 0.00 0.00 0.00 79 1016.2
20170720182911 88 293 4.0 6.0 0.00 0.00 0.00 76 1016.5
20170720182352 88 248 4.0 6.0 0.00 0.00 0.00 76 1016.5
20170720181847 88 248 4.0 6.0 0.00 0.00 0.00 78 1016.5
20170720181344 88 270 5.0 7.0 0.00 0.00 0.00 75 1016.9
20170720180847 88 0 4.0 7.0 0.00 0.00 0.00 75 1016.9
20170720180332 87 248 3.0 7.0 0.00 0.00 0.00 76 1016.9
20170720175819 88 248 4.0 8.0 0.00 0.00 0.00 76 1016.9
20170720175310 88 225 4.0 8.0 0.00 0.00 0.00 76 1016.9
20170720174811 88 180 4.0 8.0 0.00 0.00 0.00 75 1016.9
20170720174309 88 180 4.0 10.0 0.00 0.00 0.00 74 1016.9
20170720173803 88 158 4.0 10.0 0.00 0.00 0.00 75 1017.2
20170720173248 88 338 5.0 8.0 0.00 0.00 0.00 75 1016.9
20170720172749 88 158 5.0 8.0 0.00 0.00 0.00 76 1017.2
20170720172249 89 225 4.0 8.0 0.00 0.00 0.00 75 1017.2
20170720171737 89 225 5.0 11.0 0.00 0.00 0.00 75 1017.2
20170720171225 89 270 6.0 11.0 0.00 0.00 0.00 79 1017.2
20170720170713 89 23 5.0 13.0 0.00 0.00 0.00 81 1017.5
20170720170215 88 113 4.0 13.0 0.00 0.00 0.00 83 1017.2
20170720165714 88 225 5.0 9.0 0.00 0.00 0.00 83 1017.5
20170720165203 88 158 5.0 8.0 0.00 0.00 0.00 81 1017.5
20170720164653 89 293 3.0 6.0 0.00 0.00 0.00 85 1017.5
20170720164141 88 135 4.0 8.0 0.00 0.00 0.00 86 1017.2
20170720163637 90 90 4.0 8.0 0.00 0.00 0.00 83 1017.2
20170720163142 89 248 3.0 6.0 0.00 0.00 0.00 85 1017.5
20170720162628 89 158 4.0 8.0 0.00 0.00 0.00 86 1017.9
20170720162116 88 225 4.0 10.0 0.00 0.00 0.00 86 1017.9
20170720161601 87 225 5.0 10.0 0.00 0.00 0.00 86 1018.2
20170720161049 87 338 5.0 10.0 0.00 0.00 0.00 86 1018.2
20170720160549 87 180 5.0 8.0 0.00 0.00 0.00 86 1018.2
20170720160049 85 113 3.0 6.0 0.00 0.00 0.00 91 1018.2
20170720155528 87 225 4.0 7.0 0.00 0.00 0.00 88 1018.5
20170720155032 85 180 4.0 8.0 0.00 0.00 0.00 90 1018.5
20170720154534 85 270 4.0 8.0 0.00 0.00 0.00 88 1019.0
20170720154016 87 0 5.0 8.0 0.00 0.00 0.00 88 1018.5
20170720153505 88 180 4.0 8.0 0.00 0.00 0.00 88 1018.2
20170720152953 88 225 4.0 8.0 0.00 0.00 0.00 86 1018.5
20170720152452 86 90 3.0 9.0 0.00 0.00 0.00 90 1018.2
20170720151959 87 180 4.0 9.0 0.00 0.00 0.00 88 1019.0
20170720151446 87 248 4.0 7.0 0.00 0.00 0.00 88 1018.5
20170720150935 87 225 4.0 8.0 0.00 0.00 0.00 88 1018.5
20170720150401 86 203 4.0 8.0 0.00 0.00 0.00 91 1018.5
20170720145900 86 225 5.0 8.0 0.00 0.00 0.00 91 1018.5
20170720145402 86 180 2.0 7.0 0.00 0.00 0.00 91 1018.5
20170720144849 85 225 3.0 7.0 0.00 0.00 0.00 95 1018.2
20170720144344 85 203 2.0 4.0 0.00 0.00 0.00 96 1018.5
20170720143827 84 203 2.0 4.0 0.00 0.00 0.00 96 1018.2
20170720143330 83 225 1.0 3.0 0.00 0.00 0.00 98 1018.5
20170720142828 83 270 1.0 4.0 0.00 0.00 0.00 98 1018.5
20170720142317 81 203 1.0 5.0 0.00 0.00 0.00 98 1018.5
20170720141805 80 90 2.0 5.0 0.00 0.00 0.00 98 1018.5
20170720141251 80 225 2.0 4.0 0.00 0.00 0.00 98 1018.5
20170720140746 81 203 2.0 5.0 0.00 0.00 0.00 98 1019.0
20170720140234 81 225 3.0 5.0 0.00 0.00 0.00 98 1019.0
20170720135727 81 180 2.0 5.0 0.00 0.00 0.00 98 1019.0
20170720135229 80 158 3.0 5.0 0.00 0.00 0.00 98 1019.3
20170720134646 80 225 2.0 4.0 0.00 0.00 0.00 98 1019.3
20170720134147 80 180 1.0 3.0 0.00 0.00 0.00 98 1019.0
20170720133644 80 315 1.0 4.0 0.00 0.00 0.00 98 1019.3
20170720133133 79 225 2.0 5.0 0.00 0.00 0.00 98 1019.3
20170720132626 78 203 2.0 4.0 0.00 0.00 0.00 98 1019.0
20170720132108 78 203 1.0 2.0 0.00 0.00 0.00 98 1018.5
20170720131608 77 135 0.0 2.0 0.00 0.00 0.00 98 1018.5
20170720131009 77 203 1.0 3.0 0.00 0.00 0.00 98 1019.3
20170720130507 76 225 2.0 3.0 0.00 0.00 0.00 98 1019.3
20170720125955 77 180 2.0 3.0 0.00 0.00 0.00 98 1019.0
20170720125444 77 248 0.0 1.0 0.00 0.00 0.00 98 1019.0
20170720124934 76 248 0.0 2.0 0.00 0.00 0.00 98 1018.2
20170720124434 76 90 0.0 2.0 0.00 0.00 0.00 98 1018.5
20170720123932 76 45 0.0 2.0 0.00 0.00 0.00 98 1018.2
20170720123422 75 180 0.0 2.0 0.00 0.00 0.00 98 1019.0
20170720122912 75 225 0.0 2.0 0.00 0.00 0.00 98 1018.5
20170720122412 75 203 0.0 1.0 0.00 0.00 0.00 98 1018.5
20170720121915 75 135 0.0 1.0 0.00 0.00 0.00 98 1019.3
20170720121400 74 180 0.0 1.0 0.00 0.00 0.00 98 1019.0
20170720120851 74 113 0.0 1.0 0.00 0.00 0.00 98 1018.5
20170720120340 74 180 0.0 1.0 0.00 0.00 0.00 98 1018.5
20170720115841 73 135 1.0 2.0 0.00 0.00 0.00 98 1019.0
20170720115336 73 113 0.0 2.0 0.00 0.00 0.00 98 1018.5
20170720114828 72 113 0.0 0.0 0.00 0.00 0.00 98 1018.5
20170720114316 71 90 0.0 0.0 0.00 0.00 0.00 98 1018.5
20170720113306 71 225 0.0 0.0 0.00 0.00 0.00 98 1019.0
20170720112804 70 203 0.0 0.0 0.00 0.00 0.00 98 1018.5
20170720112254 70 225 0.0 0.0 0.00 0.00 0.00 98 1019.0
20170720111745 69 203 0.0 0.0 0.00 0.00 0.00 98 1018.5
20170720111244 69 225 0.0 0.0 0.00 0.00 0.00 98 1017.9
20170720110746 69 90 0.0 0.0 0.00 0.00 0.00 98 1017.9
20170720110235 68 90 0.0 0.0 0.00 0.00 0.00 98 1017.5
20170720105725 68 135 0.0 0.0 0.00 0.00 0.00 98 1017.5
20170720105209 68 68 0.0 0.0 0.00 0.00 0.00 98 1017.2
20170720104711 68 113 0.0 1.0 0.00 0.00 0.00 98 1017.5
20170720104209 67 90 0.0 2.0 0.00 0.00 0.00 98 1017.5
20170720103642 67 113 0.0 2.0 0.00 0.00 0.00 98 1017.2
20170720103132 67 90 0.0 0.0 0.00 0.00 0.00 98 1017.2
20170720102617 67 90 0.0 0.0 0.00 0.00 0.00 98 1017.2
20170720102106 67 90 0.0 1.0 0.00 0.00 0.00 98 1017.2
20170720101559 67 90 0.0 2.0 0.00 0.00 0.00 98 1017.2
20170720101050 67 68 0.0 2.0 0.00 0.00 0.00 98 1016.9
20170720100543 67 113 0.0 0.0 0.00 0.00 0.00 98 1017.2
20170720100037 67 90 0.0 0.0 0.00 0.00 0.00 98 1017.5
20170720095528 67 90 0.0 0.0 0.00 0.00 0.00 98 1017.2
20170720095027 67 90 0.0 0.0 0.00 0.00 0.00 98 1016.9
20170720094517 67 90 0.0 0.0 0.00 0.00 0.00 98 1017.2
20170720094003 67 90 0.0 0.0 0.00 0.00 0.00 98 1016.9
20170720093458 67 90 0.0 0.0 0.00 0.00 0.00 98 1016.9
20170720092953 67 90 0.0 0.0 0.00 0.00 0.00 98 1016.9
20170720092455 67 90 0.0 0.0 0.00 0.00 0.00 98 1017.2
20170720091945 67 90 0.0 0.0 0.00 0.00 0.00 98 1017.2
20170720091431 67 90 0.0 0.0 0.00 0.00 0.00 98 1017.2
20170720090931 67 90 0.0 0.0 0.00 0.00 0.00 98 1017.2
20170720090430 67 90 0.0 0.0 0.00 0.00 0.00 98 1017.5
20170720085923 67 158 0.0 0.0 0.00 0.00 0.00 98 1017.2
20170720085408 67 158 0.0 0.0 0.00 0.00 0.00 98 1017.2
20170720084858 67 90 0.0 0.0 0.00 0.00 0.00 98 1017.2
20170720084356 67 90 0.0 0.0 0.00 0.00 0.00 98 1017.5
20170720083857 67 90 0.0 0.0 0.00 0.00 0.00 98 1017.5
20170720083346 67 90 0.0 0.0 0.00 0.00 0.00 98 1017.2
20170720082835 67 90 0.0 0.0 0.00 0.00 0.00 98 1017.2
20170720082336 67 90 0.0 0.0 0.00 0.00 0.00 98 1017.2
20170720081835 67 113 0.0 0.0 0.00 0.00 0.00 98 1017.2
20170720081325 67 113 0.0 0.0 0.00 0.00 0.00 98 1017.2
20170720080815 67 113 0.0 0.0 0.00 0.00 0.00 98 1017.5
20170720080305 67 90 0.0 0.0 0.00 0.00 0.00 98 1017.5
20170720075803 67 90 0.0 0.0 0.00 0.00 0.00 98 1017.5
20170720075301 67 90 0.0 0.0 0.00 0.00 0.00 98 1017.9
20170720074755 67 90 0.0 0.0 0.00 0.00 0.00 98 1017.5
20170720074241 67 90 0.0 0.0 0.00 0.00 0.00 98 1017.9
20170720073741 67 180 0.0 0.0 0.00 0.00 0.00 98 1018.2
20170720073244 67 180 0.0 0.0 0.00 0.00 0.00 98 1017.9
20170720072728 67 180 0.0 0.0 0.00 0.00 0.00 98 1017.9
20170720072224 67 180 0.0 0.0 0.00 0.00 0.00 98 1017.5
20170720071708 67 90 0.0 0.0 0.00 0.00 0.00 98 1017.9
20170720071206 67 90 0.0 0.0 0.00 0.00 0.00 98 1017.9
20170720070709 67 90 0.0 0.0 0.00 0.00 0.00 98 1017.5
20170720070052 67 90 0.0 0.0 0.00 0.00 0.00 98 1017.9
20170720065540 67 90 0.0 0.0 0.00 0.00 0.00 98 1017.9
20170720065035 67 90 0.0 0.0 0.00 0.00 0.00 98 1017.9
20170720064454 67 158 0.0 0.0 0.00 0.00 0.00 98 1018.2
20170720063942 67 158 0.0 0.0 0.00 0.00 0.00 98 1018.2
20170720063443 67 135 0.0 0.0 0.00 0.00 0.00 98 1018.2
20170720062943 67 113 0.0 0.0 0.00 0.00 0.00 98 1018.5
20170720062431 67 113 0.0 0.0 0.00 0.00 0.00 98 1018.5
20170720061922 68 113 0.0 0.0 0.00 0.00 0.00 98 1018.5
20170720061409 68 113 0.0 0.0 0.00 0.00 0.00 98 1019.0
20170720060911 68 113 0.0 0.0 0.00 0.00 0.00 98 1018.5
20170720060407 68 113 0.0 0.0 0.00 0.00 0.00 98 1018.5
20170720055859 68 113 0.0 0.0 0.00 0.00 0.00 98 1018.5
20170720055347 68 135 0.0 0.0 0.00 0.00 0.00 98 1018.5
20170720054831 68 45 0.0 0.0 0.00 0.00 0.00 98 1018.5
20170720054328 68 45 0.0 0.0 0.00 0.00 0.00 98 1019.0
20170720053820 68 113 0.0 0.0 0.00 0.00 0.00 98 1019.3
20170720053313 68 113 0.0 0.0 0.00 0.00 0.00 98 1019.0
20170720052753 68 113 0.0 0.0 0.00 0.00 0.00 98 1019.0
20170720052240 68 158 0.0 0.0 0.00 0.00 0.00 98 1019.0
20170720051738 69 135 0.0 0.0 0.00 0.00 0.00 98 1019.3
20170720051228 69 23 0.0 0.0 0.00 0.00 0.00 98 1019.3
20170720050718 69 23 0.0 0.0 0.00 0.00 0.00 98 1019.3
20170720050211 69 23 0.0 0.0 0.00 0.00 0.00 98 1019.0
20170720045709 69 23 0.0 0.0 0.00 0.00 0.00 98 1019.3
20170720045204 69 23 0.0 0.0 0.00 0.00 0.00 98 1019.3
20170720044653 69 23 0.0 0.0 0.00 0.00 0.00 98 1019.0
20170720044157 69 68 0.0 0.0 0.00 0.00 0.00 98 1018.5